Regional Weather Roundup
Issued by NWS

Home | Current Version | Previous Version | Text Only | Print | Product List | Glossary On
Versions: 1 2 3 4 5 6 7 8 9 10 11 12 13 14 15 16 17 18 19 20 21 22 23 24 25 26 27 28 29 30 31 32 33 34 35 36 37 38 39 40 41 42 43 44 45 46 47 48 49 50
361
ASUS44 KLIX 172111
RWRLA
LOUISIANA WEATHER ROUNDUP
NATIONAL WEATHER SERVICE NEW ORLEANS LA
400 PM CDT FRI APR 17 2015

NOTE: "FAIR" INDICATES FEW OR NO CLOUDS BELOW 12,000 FEET WITH NO
      SIGNIFICANT WEATHER AND/OR OBSTRUCTIONS TO VISIBILITY.
      SKY/WX - SKY CONDITION AND SIGNIFICANT WEATHER.
      TMP - AIR TEMPERATURE.    DP   - DEWPOINT TEMPERATURE.
      RH  - RELATIVE HUMIDITY.  PRES - PRESSURE.
      HX  - HEAT INDEX.         WCI  - WIND CHILL INDEX.

*  THESE STATIONS ARE NOT NWS OR FAA STATIONS AND ARE NOT UNDER
   NWS QUALITY CONTROL.

LAZ040-048-061>063-065-066-069-172200-
SOUTHEAST LOUISIANA

CITY           SKY/WX    TMP DP  RH WIND       PRES   REMARKS
N.O. AUDUBON     N/A     83  75  75 MISG        N/A
N.O. INTL ARPT MOSUNNY   82  69  64 W8        29.91F
N.O. LAKEFRONT SUNNY     82  70  66 NW5       29.92F
SLIDELL        SUNNY     81  69  67 SW5       29.90F
BATON ROUGE    PTSUNNY   83  67  58 W7        29.92F
BOOTHVILLE     SUNNY     79  71  76 SW12      29.93S
BELLE CHASSE   PTSUNNY   81  69  67 W7        29.92F
BOGALUSA*        N/A     85  66  52 SW7       29.91F
GALLIANO*      MOCLDY    82  68  63 MISG      29.94S
NEW ROADS*     FAIR      83  67  59 SW6       29.92F
GONZALES*      MOCLDY    82  69  65 SW6       29.92S
HAMMOND*       PTSUNNY   86  64  48 NW7       29.93F
HOUMA*         PTSUNNY   81  72  74 NW7       29.93F
PORT FOURCHON* PTCLDY    79  68  69 W8        29.96S

$$

LAZ041-044-053-054-172200-
SOUTHWEST LOUISIANA

CITY           SKY/WX    TMP DP  RH WIND       PRES   REMARKS
LAKE CHARLES   PTSUNNY   81  68  64 E8        29.91F
LAFAYETTE      PTSUNNY   83  69  62 VRB5      29.91F
PATTERSON      CLOUDY    79  68  69 CALM      29.93F
SALT POINT       N/A     79  68  69 CALM      29.90F
NEW IBERIA     MOSUNNY   81  71  71 SE3       29.92F
CHENAULT AIRPK NOT AVBL

$$

LAZ027-028-172200-
CENTRAL LOUISIANA

CITY           SKY/WX    TMP DP  RH WIND       PRES   REMARKS
FORT POLK      MOSUNNY   80  64  58 VRB2      29.91F
ALEXANDRIA INT PTSUNNY   79  65  62 CALM      29.91F
ALEXANDRIA     MOSUNNY   81  64  56 W3        29.93F

$$

LAZ001-002-172200-
NORTHWEST LOUISIANA

CITY           SKY/WX    TMP DP  RH WIND       PRES   REMARKS
SHREVEPORT     CLOUDY    80  65  59 N9        29.94F
BARKSDALE AFB  PTSUNNY   79  63  57 VRB2      29.94F
DTN SHREVEPORT CLOUDY    78  62  57 CALM      29.95F

$$

LAZ014-016-172200-
NORTHEAST LOUISIANA

CITY           SKY/WX    TMP DP  RH WIND       PRES   REMARKS
MONROE         CLOUDY    80  65  59 NE5       29.94F
TALLULAH       PTSUNNY   76  68  76 N14       29.95F

$$




USA.gov is the U.S. government's official web portal to all federal, state and local government web resources and services.